ORBCOMM FM01 [-]

Last updated on Fri Dec 29 2023 00:02:53 GMT+0000 (Coordinated Universal Time)

1 23545U 95017A 23362.16447126 .00006727 00000+0 94509-3 0 9999 2 23545 69.9693 319.4636 0003260 7.2847 352.8348 14.77800758533218
UTC large
Height (km)
Speed (km/s)
/
Latitude / Longitude
Inclination (degrees)
Orbital Period (minutes)
Azimuth
Elevation
Range (km)
Doppler Factor

Next 0 passes for location: London (51.5072 / 0.1276)

Sorry there are no passes over London.
ORBCOMM FM01 [-]